Location: Sungai Bunut
(2.6333°N, 113.7333°E)
Time: 18:07:57
(UTC+00:00)

Cosmos 2154 Rocket - Pass Details

Date: 16 October 2021
Orbit: 965 x 997 km, 82.9° (Epoch: 07 December)

Event Time Altitude Azimuth Distance (km) Brightness Sun altitude
Rises 20:25:00 0° 1° (N) 3,639 6.9 -26.5°
Reaches altitude 10° 20:27:30 10° 3° (N) 2,694 6.2 -25.8°
Maximum altitude 20:33:38 72° 87° (E) 1,011 4.1 -24.3°
Drops below altitude 10° 20:39:48 10° 171° (S) 2,706 6.5 -22.8°
Sets 20:42:19 0° 172° (S) 3,657 7.2 -22.2°
